This is the latest recevied weather packets stored in our database for station/object KE5YIM-13. If no packets are shown the sender has not sent any weather packets the latest 10 day(s).
| Time | Temp. | Humidity | Pressure | Rain* | Wind** | Luminosity | Snow |
|---|---|---|---|---|---|---|---|
| 1777979756 | 10° C | 99% | 1012.8 hPa | 0 mm | - | 52 W/m² | - |
| 1777979452 | 9.44° C | 99% | 1012.6 hPa | 0 mm | - | 65 W/m² | - |
| 1777979149 | 8.89° C | 99% | 1012.4 hPa | 0 mm | - | 79 W/m² | - |
| 1777978845 | 8.89° C | 99% | 1012.3 hPa | 0 mm | - | 70 W/m² | - |
| 1777978542 | 8.33° C | 99% | 1012 hPa | 0 mm | - | 60 W/m² | - |
| 1777978238 | 8.33° C | 99% | 1012.2 hPa | 0 mm | - | 62 W/m² | - |
| 1777977935 | 7.78° C | 99% | 1012.2 hPa | 0 mm | - | 56 W/m² | - |
| 1777977633 | 7.78° C | 98% | 1011.9 hPa | 0 mm | - | 39 W/m² | - |
| 1777977329 | 7.78° C | 99% | 1012.1 hPa | 0 mm | - | 32 W/m² | - |
| 1777977027 | 7.22° C | 99% | 1011.9 hPa | 0 mm | - | 28 W/m² | - |
| 1777976723 | 7.22° C | 98% | 1011.9 hPa | 0 mm | - | 24 W/m² | - |
| 1777976421 | 7.22° C | 98% | 1011.9 hPa | 0 mm | - | 20 W/m² | - |
| 1777976120 | 7.22° C | 98% | 1011.7 hPa | 0 mm | - | 17 W/m² | - |
| 1777975816 | 7.22° C | 98% | 1011.5 hPa | 0 mm | - | 14 W/m² | - |
| 1777975513 | 6.67° C | 98% | 1011.4 hPa | 0 mm | - | 11 W/m² | - |
| 1777975210 | 7.22° C | 98% | 1011.4 hPa | 0 mm | - | 8 W/m² | - |
| 1777974906 | 7.22° C | 98% | 1011.7 hPa | 0 mm | - | 6 W/m² | - |
| 1777974601 | 6.67° C | 98% | 1011.6 hPa | 0 mm | - | 4 W/m² | - |
| 1777974299 | 6.67° C | 98% | 1011.6 hPa | 0 mm | - | 3 W/m² | - |
| 1777973995 | 7.22° C | 98% | 1011.5 hPa | 0 mm | - | 1 W/m² | - |
| 1777973692 | 7.22° C | 98% | 1011.5 hPa | 0 mm | - | 1 W/m² | - |
| 1777973389 | 6.67° C | 98% | 1011.4 hPa | 0 mm | - | 0 W/m² | - |
| 1777973086 | 7.22° C | 98% | 1011.4 hPa | 0 mm | - | 0 W/m² | - |
| 1777972784 | 6.67° C | 98% | 1011.5 hPa | 0 mm | - | 0 W/m² | - |
| 1777972481 | 7.22° C | 98% | 1011.5 hPa | 0 mm | - | 0 W/m² | - |
* Rain latest hour (hover to see other rain measurements)
** Current wind speed in m/s (hover to see current wind gust speed)